iso_date,epoch_date,Year,Hour,Min,DOY,POS_DOY,Lat,Lon,BP,Ts,Ta,has_bp,has_ts,has_ta,BuoyID,Buoy_Type,Buoy_Owner,Logistics,Hemisphere
2020-09-21T17:43:35Z,1600710215,2020,17,43,265.7386,265.7386,78.89931,-142.35611,1000.7,-7.34,-7.62,yes,yes,yes,300434063443910,SIMB3,CRREL/Dartmouth,BGOS/JOIS,North
2020-09-21T19:00:46Z,1600714846,2020,19,0,265.7922,265.7922,78.89897,-142.36538,1000.6,-1.78,-7.81,yes,yes,yes,300434063443910,SIMB3,CRREL/Dartmouth,BGOS/JOIS,North
2020-09-21T23:00:48Z,1600729249,2020,23,0,265.9589,265.9589,78.89622,-142.39509,1000.9,-1.76,-6.88,yes,yes,yes,300434063443910,SIMB3,CRREL/Dartmouth,BGOS/JOIS,North
2020-09-22T03:00:51Z,1600743652,2020,3,0,266.1256,266.1256,78.8914,-142.43454,1001.1,-1.74,-7.0,yes,yes,yes,300434063443910,SIMB3,CRREL/Dartmouth,BGOS/JOIS,North
2020-09-22T07:00:54Z,1600758055,2020,7,0,266.2923,266.2923,78.88677,-142.47416,1001.7,-1.74,-7.75,yes,yes,yes,300434063443910,SIMB3,CRREL/Dartmouth,BGOS/JOIS,North
2020-09-22T11:00:40Z,1600772440,2020,11,0,266.4588,266.4588,78.88087,-142.51434,1002.0,-1.74,-8.44,yes,yes,yes,300434063443910,SIMB3,CRREL/Dartmouth,BGOS/JOIS,North
2020-09-22T15:01:26Z,1600786886,2020,15,1,266.626,266.626,78.87657,-142.55728,1002.6,-1.76,-8.56,yes,yes,yes,300434063443910,SIMB3,CRREL/Dartmouth,BGOS/JOIS,North
2020-09-22T19:01:03Z,1600801263,2020,19,1,266.7924,266.7924,78.87547,-142.59437,1003.5,-1.74,-9.25,yes,yes,yes,300434063443910,SIMB3,CRREL/Dartmouth,BGOS/JOIS,North
2020-09-22T23:00:31Z,1600815632,2020,23,0,266.9587,266.9587,78.87629,-142.6217,1004.7,-1.74,-7.69,yes,yes,yes,300434063443910,SIMB3,CRREL/Dartmouth,BGOS/JOIS,North
2020-09-23T03:01:09Z,1600830069,2020,3,1,267.1258,267.1258,78.87744,-142.68581,1006.3,-1.76,-5.25,yes,yes,yes,300434063443910,SIMB3,CRREL/Dartmouth,BGOS/JOIS,North
2020-09-23T07:01:29Z,1600844489,2020,7,1,267.2927,267.2927,78.88369,-142.76899,1008.2,-1.74,-4.31,yes,yes,yes,300434063443910,SIMB3,CRREL/Dartmouth,BGOS/JOIS,North
2020-09-23T11:01:06Z,1600858866,2020,11,1,267.4591,267.4591,78.88811,-142.87901,1010.1,-1.74,-5.31,yes,yes,yes,300434063443910,SIMB3,CRREL/Dartmouth,BGOS/JOIS,North
2020-09-23T15:00:43Z,1600873243,2020,15,0,267.6255,267.6255,78.88732,-143.01499,1011.8,-1.74,-5.06,yes,yes,yes,300434063443910,SIMB3,CRREL/Dartmouth,BGOS/JOIS,North
2020-09-23T19:01:03Z,1600887663,2020,19,1,267.7924,267.7924,78.88735,-143.16486,1013.5,-1.74,-6.06,yes,yes,yes,300434063443910,SIMB3,CRREL/Dartmouth,BGOS/JOIS,North
2020-09-23T23:01:06Z,1600902066,2020,23,1,267.9591,267.9591,78.88794,-143.26357,1015.1,-1.74,-9.69,yes,yes,yes,300434063443910,SIMB3,CRREL/Dartmouth,BGOS/JOIS,North
2020-09-24T03:00:34Z,1600916435,2020,3,0,268.1254,268.1254,78.88086,-143.33333,1016.0,-1.74,-10.88,yes,yes,yes,300434063443910,SIMB3,CRREL/Dartmouth,BGOS/JOIS,North
2020-09-24T07:00:46Z,1600930846,2020,7,0,268.2922,268.2922,78.87396,-143.39714,1016.9,-1.74,-10.81,yes,yes,yes,300434063443910,SIMB3,CRREL/Dartmouth,BGOS/JOIS,North
2020-09-24T11:00:57Z,1600945258,2020,11,0,268.459,268.459,78.86964,-143.4171,1016.9,-1.74,-15.38,yes,yes,yes,300434063443910,SIMB3,CRREL/Dartmouth,BGOS/JOIS,North
2020-09-24T15:01:09Z,1600959669,2020,15,1,268.6258,268.6258,78.86154,-143.42408,1017.0,-1.74,-12.69,yes,yes,yes,300434063443910,SIMB3,CRREL/Dartmouth,BGOS/JOIS,North
2020-09-24T19:01:03Z,1600974063,2020,19,1,268.7924,268.7924,78.85698,-143.44624,1016.8,-1.74,-12.0,yes,yes,yes,300434063443910,SIMB3,CRREL/Dartmouth,BGOS/JOIS,North
2020-09-24T23:00:57Z,1600988458,2020,23,0,268.959,268.959,78.8581,-143.43877,1016.2,-1.74,-19.0,yes,yes,yes,300434063443910,SIMB3,CRREL/Dartmouth,BGOS/JOIS,North
2020-09-25T03:01:52Z,1601002912,2020,3,1,269.1263,269.1263,78.85741,-143.42104,1015.7,-1.74,-18.0,yes,yes,yes,300434063443910,SIMB3,CRREL/Dartmouth,BGOS/JOIS,North
2020-09-25T07:00:54Z,1601017255,2020,7,0,269.2923,269.2923,78.8601,-143.40166,1015.1,-1.74,-11.31,yes,yes,yes,300434063443910,SIMB3,CRREL/Dartmouth,BGOS/JOIS,North
2020-09-25T11:00:40Z,1601031640,2020,11,0,269.4588,269.4588,78.86706,-143.33475,1014.2,-1.74,-11.12,yes,yes,yes,300434063443910,SIMB3,CRREL/Dartmouth,BGOS/JOIS,North
2020-09-25T15:03:01Z,1601046181,2020,15,2,269.6271,269.6271,78.87027,-143.25376,1013.7,-1.74,-7.81,yes,yes,yes,300434063443910,SIMB3,CRREL/Dartmouth,BGOS/JOIS,North
2020-09-25T19:01:03Z,1601060463,2020,19,1,269.7924,269.7924,78.87152,-143.17566,1013.9,-1.74,-6.19,yes,yes,yes,300434063443910,SIMB3,CRREL/Dartmouth,BGOS/JOIS,North
2020-09-25T23:00:48Z,1601074849,2020,23,0,269.9589,269.9589,78.8725,-143.09472,1013.8,-1.74,-8.44,yes,yes,yes,300434063443910,SIMB3,CRREL/Dartmouth,BGOS/JOIS,North
2020-09-26T03:01:35Z,1601089295,2020,3,1,270.1261,270.1261,78.87135,-143.01923,1013.6,-1.74,-8.75,yes,yes,yes,300434063443910,SIMB3,CRREL/Dartmouth,BGOS/JOIS,North
2020-09-26T07:01:03Z,1601103663,2020,7,1,270.2924,270.2924,78.8736,-142.95218,1013.7,-1.74,-9.62,yes,yes,yes,300434063443910,SIMB3,CRREL/Dartmouth,BGOS/JOIS,North
2020-09-26T11:01:06Z,1601118066,2020,11,1,270.4591,270.4591,78.87907,-142.8691,1013.0,-1.74,-8.56,yes,yes,yes,300434063443910,SIMB3,CRREL/Dartmouth,BGOS/JOIS,North
2020-09-26T15:00:51Z,1601132452,2020,15,0,270.6256,270.6256,78.88814,-142.75942,1012.7,-1.74,-5.19,yes,yes,yes,300434063443910,SIMB3,CRREL/Dartmouth,BGOS/JOIS,North
2020-09-26T19:01:03Z,1601146863,2020,19,0,270.7924,270.7924,78.90101,-142.63891,1012.2,-1.74,-4.56,yes,yes,yes,300434063443910,SIMB3,CRREL/Dartmouth,BGOS/JOIS,North
2020-09-26T23:01:06Z,1601161266,2020,23,1,270.9591,270.9591,78.91357,-142.53106,1011.5,-1.78,-4.0,yes,yes,yes,300434063443910,SIMB3,CRREL/Dartmouth,BGOS/JOIS,North
2020-09-26T23:01:58Z,1601161318,2020,23,1,270.9597,270.9597,78.91357,-142.53106,1011.5,-1.78,-4.0,yes,yes,yes,300434063443910,SIMB3,CRREL/Dartmouth,BGOS/JOIS,North
2020-09-27T07:00:54Z,1601190055,2020,7,0,271.2923,271.2923,78.94011,-142.29293,1010.5,-1.74,-3.94,yes,yes,yes,300434063443910,SIMB3,CRREL/Dartmouth,BGOS/JOIS,North
2020-09-27T11:00:57Z,1601204458,2020,11,0,271.459,271.459,78.95665,-142.16178,1008.9,-1.74,-3.19,yes,yes,yes,300434063443910,SIMB3,CRREL/Dartmouth,BGOS/JOIS,North
2020-09-27T15:01:00Z,1601218860,2020,15,0,271.6257,271.6257,78.97347,-142.02651,1007.9,-1.77,-2.5,yes,yes,yes,300434063443910,SIMB3,CRREL/Dartmouth,BGOS/JOIS,North
2020-09-27T19:01:03Z,1601233263,2020,19,1,271.7924,271.7924,78.9839,-141.88418,1007.1,-1.75,-1.88,yes,yes,yes,300434063443910,SIMB3,CRREL/Dartmouth,BGOS/JOIS,North
2020-09-27T23:00:57Z,1601247658,2020,23,0,271.959,271.959,78.98715,-141.7835,1007.1,-1.74,-2.06,yes,yes,yes,300434063443910,SIMB3,CRREL/Dartmouth,BGOS/JOIS,North
2020-09-28T03:02:00Z,1601262121,2020,3,1,272.1264,272.1264,78.9921,-141.71394,1007.9,-1.76,-2.31,yes,yes,yes,300434063443910,SIMB3,CRREL/Dartmouth,BGOS/JOIS,North
2020-09-28T07:01:37Z,1601276498,2020,7,1,272.2928,272.2928,78.99852,-141.64477,1008.8,-1.76,-2.25,yes,yes,yes,300434063443910,SIMB3,CRREL/Dartmouth,BGOS/JOIS,North
2020-09-28T11:00:57Z,1601290858,2020,11,0,272.459,272.459,79.00303,-141.58896,1009.4,-1.8,-2.62,yes,yes,yes,300434063443910,SIMB3,CRREL/Dartmouth,BGOS/JOIS,North
2020-09-28T15:03:10Z,1601305390,2020,15,3,272.6272,272.6272,79.01091,-141.5455,1010.9,-1.79,-2.25,yes,yes,yes,300434063443910,SIMB3,CRREL/Dartmouth,BGOS/JOIS,North
2020-09-28T19:01:20Z,1601319681,2020,19,1,272.7926,272.7926,79.01974,-141.4787,1012.6,-1.75,-2.25,yes,yes,yes,300434063443910,SIMB3,CRREL/Dartmouth,BGOS/JOIS,North
2020-09-28T23:00:48Z,1601334049,2020,23,0,272.9589,272.9589,79.02322,-141.42282,1014.0,-1.79,-2.25,yes,yes,yes,300434063443910,SIMB3,CRREL/Dartmouth,BGOS/JOIS,North
2020-09-29T03:01:52Z,1601348512,2020,3,1,273.1263,273.1263,79.02901,-141.38066,1016.3,-1.78,-2.5,yes,yes,yes,300434063443910,SIMB3,CRREL/Dartmouth,BGOS/JOIS,North
2020-09-29T07:01:03Z,1601362863,2020,7,1,273.2924,273.2924,79.03835,-141.30602,1018.3,-1.81,-2.81,yes,yes,yes,300434063443910,SIMB3,CRREL/Dartmouth,BGOS/JOIS,North
2020-09-29T11:00:57Z,1601377258,2020,11,1,273.459,273.459,79.04336,-141.24768,1019.8,-1.81,-3.19,yes,yes,yes,300434063443910,SIMB3,CRREL/Dartmouth,BGOS/JOIS,North
2020-09-29T15:00:51Z,1601391652,2020,15,0,273.6256,273.6256,79.05363,-141.20931,1021.9,-1.76,-3.88,yes,yes,yes,300434063443910,SIMB3,CRREL/Dartmouth,BGOS/JOIS,North
2020-09-29T19:01:55Z,1601406115,2020,19,1,273.793,273.793,79.06529,-141.13341,1023.3,-1.79,-2.81,yes,yes,yes,300434063443910,SIMB3,CRREL/Dartmouth,BGOS/JOIS,North
2020-09-29T23:01:06Z,1601420466,2020,23,1,273.9591,273.9591,79.07166,-141.07675,1024.3,-1.76,-3.75,yes,yes,yes,300434063443910,SIMB3,CRREL/Dartmouth,BGOS/JOIS,North
2020-09-30T03:01:52Z,1601434912,2020,3,1,274.1263,274.1263,79.08467,-141.02662,1025.1,-1.77,-3.75,yes,yes,yes,300434063443910,SIMB3,CRREL/Dartmouth,BGOS/JOIS,North
2020-09-30T07:01:12Z,1601449272,2020,7,1,274.2925,274.2925,79.09908,-140.93669,1025.8,-1.76,-3.44,yes,yes,yes,300434063443910,SIMB3,CRREL/Dartmouth,BGOS/JOIS,North
2020-09-30T11:03:07Z,1601463787,2020,11,3,274.4605,274.4605,79.10622,-140.85334,1026.2,-1.79,-2.44,yes,yes,yes,300434063443910,SIMB3,CRREL/Dartmouth,BGOS/JOIS,North
2020-09-30T15:02:44Z,1601478164,2020,15,2,274.6269,274.6269,79.11485,-140.78408,1027.1,-1.77,-2.12,yes,yes,yes,300434063443910,SIMB3,CRREL/Dartmouth,BGOS/JOIS,North
2020-09-30T19:01:03Z,1601492463,2020,19,1,274.7924,274.7924,79.12152,-140.67904,1027.4,-1.79,-2.31,yes,yes,yes,300434063443910,SIMB3,CRREL/Dartmouth,BGOS/JOIS,North
2020-09-30T23:00:57Z,1601506858,2020,23,0,274.959,274.959,79.12013,-140.59906,1027.8,-1.81,-2.94,yes,yes,yes,300434063443910,SIMB3,CRREL/Dartmouth,BGOS/JOIS,North
2020-10-01T03:01:00Z,1601521260,2020,3,0,275.1257,275.1257,79.12268,-140.55077,1028.2,-1.77,-3.31,yes,yes,yes,300434063443910,SIMB3,CRREL/Dartmouth,BGOS/JOIS,North
2020-10-01T07:00:54Z,1601535655,2020,7,0,275.2923,275.2923,79.126,-140.46862,1028.4,-1.78,-3.44,yes,yes,yes,300434063443910,SIMB3,CRREL/Dartmouth,BGOS/JOIS,North
2020-10-01T11:01:49Z,1601550109,2020,11,1,275.4596,275.4596,79.12343,-140.42821,1028.5,-1.78,-4.56,yes,yes,yes,300434063443910,SIMB3,CRREL/Dartmouth,BGOS/JOIS,North
2020-10-01T15:05:45Z,1601564746,2020,15,5,275.629,275.629,79.12903,-140.40424,1028.6,-1.82,-6.56,yes,yes,yes,300434063443910,SIMB3,CRREL/Dartmouth,BGOS/JOIS,North
2020-10-01T19:04:22Z,1601579062,2020,19,4,275.7947,275.7947,79.13407,-140.3481,1028.3,-1.81,-10.56,yes,yes,yes,300434063443910,SIMB3,CRREL/Dartmouth,BGOS/JOIS,North
2020-10-01T23:01:06Z,1601593266,2020,23,1,275.9591,275.9591,79.13331,-140.33216,1027.9,-1.8,-13.38,yes,yes,yes,300434063443910,SIMB3,CRREL/Dartmouth,BGOS/JOIS,North
2020-10-02T03:01:35Z,1601607695,2020,3,1,276.1261,276.1261,79.13865,-140.326,1027.3,-1.79,-13.94,yes,yes,yes,300434063443910,SIMB3,CRREL/Dartmouth,BGOS/JOIS,North
2020-10-02T07:01:46Z,1601622107,2020,7,1,276.2929,276.2929,79.14412,-140.28778,1026.8,-1.76,-14.38,yes,yes,yes,300434063443910,SIMB3,CRREL/Dartmouth,BGOS/JOIS,North
2020-10-02T11:00:57Z,1601636458,2020,11,0,276.459,276.459,79.14427,-140.27608,1026.1,-1.81,-15.88,yes,yes,yes,300434063443910,SIMB3,CRREL/Dartmouth,BGOS/JOIS,North
2020-10-02T15:01:43Z,1601650904,2020,15,1,276.6262,276.6262,79.14971,-140.27189,1025.3,-1.76,-14.0,yes,yes,yes,300434063443910,SIMB3,CRREL/Dartmouth,BGOS/JOIS,North
2020-10-02T19:00:54Z,1601665255,2020,19,0,276.7923,276.7923,79.15562,-140.25235,1024.2,-1.76,-14.75,yes,yes,yes,300434063443910,SIMB3,CRREL/Dartmouth,BGOS/JOIS,North
2020-10-02T23:00:57Z,1601679658,2020,23,0,276.959,276.959,79.16045,-140.25478,1023.1,-1.77,-16.0,yes,yes,yes,300434063443910,SIMB3,CRREL/Dartmouth,BGOS/JOIS,North
2020-10-03T03:00:51Z,1601694052,2020,3,0,277.1256,277.1256,79.1691,-140.27256,1021.7,-1.81,-14.5,yes,yes,yes,300434063443910,SIMB3,CRREL/Dartmouth,BGOS/JOIS,North
2020-10-03T07:00:54Z,1601708455,2020,7,0,277.2923,277.2923,79.17943,-140.28786,1020.4,-1.8,-14.88,yes,yes,yes,300434063443910,SIMB3,CRREL/Dartmouth,BGOS/JOIS,North
2020-10-03T11:01:06Z,1601722866,2020,11,1,277.4591,277.4591,79.18805,-140.32922,1019.1,-1.78,-12.38,yes,yes,yes,300434063443910,SIMB3,CRREL/Dartmouth,BGOS/JOIS,North
2020-10-03T15:03:44Z,1601737425,2020,15,3,277.6276,277.6276,79.20274,-140.41302,1017.9,-1.79,-9.94,yes,yes,yes,300434063443910,SIMB3,CRREL/Dartmouth,BGOS/JOIS,North
2020-10-03T23:00:48Z,1601766049,2020,23,0,277.9589,277.9589,79.22844,-140.58811,1015.8,-1.79,-9.88,yes,yes,yes,300434063443910,SIMB3,CRREL/Dartmouth,BGOS/JOIS,North
2020-10-04T03:01:00Z,1601780460,2020,3,0,278.1257,278.1257,79.24926,-140.70499,1015.1,-1.8,-8.25,yes,yes,yes,300434063443910,SIMB3,CRREL/Dartmouth,BGOS/JOIS,North
2020-10-04T07:00:54Z,1601794855,2020,7,0,278.2923,278.2923,79.27128,-140.76846,1015.2,-1.8,-9.0,yes,yes,yes,300434063443910,SIMB3,CRREL/Dartmouth,BGOS/JOIS,North
2020-10-04T11:02:32Z,1601809353,2020,11,2,278.4601,278.4601,79.2855,-140.85922,1014.8,-1.83,-10.06,yes,yes,yes,300434063443910,SIMB3,CRREL/Dartmouth,BGOS/JOIS,North
2020-10-04T15:06:02Z,1601823963,2020,15,5,278.6292,278.6292,79.3044,-140.97202,1014.6,-1.82,-10.94,yes,yes,yes,300434063443910,SIMB3,CRREL/Dartmouth,BGOS/JOIS,North
2020-10-04T19:02:38Z,1601838158,2020,19,2,278.7935,278.7935,79.3187,-141.03376,1014.2,-1.8,-11.94,yes,yes,yes,300434063443910,SIMB3,CRREL/Dartmouth,BGOS/JOIS,North
2020-10-04T23:01:06Z,1601852466,2020,23,1,278.9591,278.9591,79.32732,-141.12206,1013.5,-1.81,-14.5,yes,yes,yes,300434063443910,SIMB3,CRREL/Dartmouth,BGOS/JOIS,North
2020-10-05T03:02:26Z,1601866947,2020,3,2,279.1267,279.1267,79.34443,-141.208,1012.8,-1.81,-16.0,yes,yes,yes,300434063443910,SIMB3,CRREL/Dartmouth,BGOS/JOIS,North
2020-10-05T07:01:46Z,1601881307,2020,7,1,279.2929,279.2929,79.35704,-141.23403,1012.3,-1.8,-16.25,yes,yes,yes,300434063443910,SIMB3,CRREL/Dartmouth,BGOS/JOIS,North
2020-10-05T11:01:06Z,1601895666,2020,11,1,279.4591,279.4591,79.36386,-141.2875,1012.0,-1.82,-17.69,yes,yes,yes,300434063443910,SIMB3,CRREL/Dartmouth,BGOS/JOIS,North
2020-10-05T15:01:00Z,1601910060,2020,15,1,279.6257,279.6257,79.37837,-141.3423,1011.9,-1.83,-14.0,yes,yes,yes,300434063443910,SIMB3,CRREL/Dartmouth,BGOS/JOIS,North
2020-10-05T19:01:20Z,1601924481,2020,19,1,279.7926,279.7926,79.38798,-141.34218,1012.1,-1.82,-10.25,yes,yes,yes,300434063443910,SIMB3,CRREL/Dartmouth,BGOS/JOIS,North
2020-10-05T23:00:57Z,1601938858,2020,23,0,279.959,279.959,79.39105,-141.3612,1012.4,-1.78,-8.19,yes,yes,yes,300434063443910,SIMB3,CRREL/Dartmouth,BGOS/JOIS,North
2020-10-06T03:00:51Z,1601953252,2020,3,0,280.1256,280.1256,79.39738,-141.37885,1013.1,-1.79,-6.69,yes,yes,yes,300434063443910,SIMB3,CRREL/Dartmouth,BGOS/JOIS,North
2020-10-06T07:01:03Z,1601967663,2020,7,1,280.2924,280.2924,79.39845,-141.36029,1014.0,-1.8,-5.88,yes,yes,yes,300434063443910,SIMB3,CRREL/Dartmouth,BGOS/JOIS,North
2020-10-06T11:03:33Z,1601982213,2020,11,3,280.4608,280.4608,79.39194,-141.34818,1015.5,-1.8,-5.69,yes,yes,yes,300434063443910,SIMB3,CRREL/Dartmouth,BGOS/JOIS,North
2020-10-06T15:03:18Z,1601996599,2020,15,3,280.6273,280.6273,79.38798,-141.33954,1016.8,-1.75,-4.94,yes,yes,yes,300434063443910,SIMB3,CRREL/Dartmouth,BGOS/JOIS,North
2020-10-06T19:01:03Z,1602010863,2020,19,1,280.7924,280.7924,79.38334,-141.29213,1018.4,-1.78,-5.0,yes,yes,yes,300434063443910,SIMB3,CRREL/Dartmouth,BGOS/JOIS,North
2020-10-06T23:01:06Z,1602025266,2020,23,1,280.9591,280.9591,79.37352,-141.27278,1019.5,-1.79,-5.0,yes,yes,yes,300434063443910,SIMB3,CRREL/Dartmouth,BGOS/JOIS,North
2020-10-07T03:00:43Z,1602039643,2020,3,0,281.1255,281.1255,79.37343,-141.25406,1020.0,-1.8,-5.0,yes,yes,yes,300434063443910,SIMB3,CRREL/Dartmouth,BGOS/JOIS,North
2020-10-07T07:00:54Z,1602054055,2020,7,0,281.2923,281.2923,79.37403,-141.18558,1020.4,-1.78,-4.44,yes,yes,yes,300434063443910,SIMB3,CRREL/Dartmouth,BGOS/JOIS,North
2020-10-07T11:01:58Z,1602068518,2020,11,1,281.4597,281.4597,79.3684,-141.14867,1020.6,-1.78,-5.44,yes,yes,yes,300434063443910,SIMB3,CRREL/Dartmouth,BGOS/JOIS,North
2020-10-07T19:03:56Z,1602097436,2020,19,3,281.7944,281.7944,79.36514,-141.08357,1021.8,-1.79,-5.81,yes,yes,yes,300434063443910,SIMB3,CRREL/Dartmouth,BGOS/JOIS,North
2020-10-07T23:01:14Z,1602111675,2020,23,1,281.9592,281.9592,79.35753,-141.06741,1022.1,-1.82,-6.75,yes,yes,yes,300434063443910,SIMB3,CRREL/Dartmouth,BGOS/JOIS,North
2020-10-08T03:01:43Z,1602126104,2020,3,1,282.1262,282.1262,79.35722,-141.06702,1022.6,-1.82,-9.94,yes,yes,yes,300434063443910,SIMB3,CRREL/Dartmouth,BGOS/JOIS,North
2020-10-08T07:01:12Z,1602140472,2020,7,1,282.2925,282.2925,79.35835,-141.04314,1023.1,-1.8,-8.19,yes,yes,yes,300434063443910,SIMB3,CRREL/Dartmouth,BGOS/JOIS,North
2020-10-08T11:01:06Z,1602154866,2020,11,1,282.4591,282.4591,79.3541,-141.03376,1022.9,-1.79,-7.56,yes,yes,yes,300434063443910,SIMB3,CRREL/Dartmouth,BGOS/JOIS,North
2020-10-08T15:00:34Z,1602169235,2020,15,0,282.6254,282.6254,79.35426,-141.03739,1023.6,-1.77,-6.75,yes,yes,yes,300434063443910,SIMB3,CRREL/Dartmouth,BGOS/JOIS,North
2020-10-08T19:00:54Z,1602183655,2020,19,0,282.7923,282.7923,79.35498,-141.01926,1024.1,-1.82,-6.56,yes,yes,yes,300434063443910,SIMB3,CRREL/Dartmouth,BGOS/JOIS,North
2020-10-08T23:00:57Z,1602198058,2020,23,0,282.959,282.959,79.35062,-141.0236,1024.6,-1.76,-6.94,yes,yes,yes,300434063443910,SIMB3,CRREL/Dartmouth,BGOS/JOIS,North
2020-10-09T03:01:00Z,1602212460,2020,3,0,283.1257,283.1257,79.35181,-141.03048,1025.1,-1.8,-7.25,yes,yes,yes,300434063443910,SIMB3,CRREL/Dartmouth,BGOS/JOIS,North
2020-10-09T07:00:54Z,1602226855,2020,7,0,283.2923,283.2923,79.34998,-141.01618,1025.7,-1.83,-9.31,yes,yes,yes,300434063443910,SIMB3,CRREL/Dartmouth,BGOS/JOIS,North
2020-10-09T11:01:06Z,1602241266,2020,11,1,283.4591,283.4591,79.34285,-141.01819,1026.1,-1.79,-13.06,yes,yes,yes,300434063443910,SIMB3,CRREL/Dartmouth,BGOS/JOIS,North
2020-10-09T15:03:36Z,1602255816,2020,15,3,283.6275,283.6275,79.34026,-141.03528,1026.1,-1.82,-11.62,yes,yes,yes,300434063443910,SIMB3,CRREL/Dartmouth,BGOS/JOIS,North
2020-10-09T19:01:03Z,1602270063,2020,19,1,283.7924,283.7924,79.3375,-141.03739,1025.9,-1.8,-10.44,yes,yes,yes,300434063443910,SIMB3,CRREL/Dartmouth,BGOS/JOIS,North
2020-10-09T23:01:32Z,1602284492,2020,23,1,283.9594,283.9594,79.33098,-141.04994,1025.1,-1.82,-7.88,yes,yes,yes,300434063443910,SIMB3,CRREL/Dartmouth,BGOS/JOIS,North
2020-10-10T03:00:51Z,1602298852,2020,3,0,284.1256,284.1256,79.32926,-141.07923,1024.7,-1.78,-7.0,yes,yes,yes,300434063443910,SIMB3,CRREL/Dartmouth,BGOS/JOIS,North
2020-10-10T07:01:03Z,1602313263,2020,7,1,284.2924,284.2924,79.32987,-141.08698,1024.3,-1.81,-9.38,yes,yes,yes,300434063443910,SIMB3,CRREL/Dartmouth,BGOS/JOIS,North
2020-10-10T11:01:49Z,1602327709,2020,11,1,284.4596,284.4596,79.32545,-141.10885,1023.9,-1.8,-13.94,yes,yes,yes,300434063443910,SIMB3,CRREL/Dartmouth,BGOS/JOIS,North
2020-10-10T15:02:35Z,1602342156,2020,15,2,284.6268,284.6268,79.32346,-141.14058,1023.7,-1.78,-14.19,yes,yes,yes,300434063443910,SIMB3,CRREL/Dartmouth,BGOS/JOIS,North
2020-10-10T19:04:22Z,1602356662,2020,19,4,284.7947,284.7947,79.31896,-141.1451,1024.0,-1.82,-12.81,yes,yes,yes,300434063443910,SIMB3,CRREL/Dartmouth,BGOS/JOIS,North
2020-10-10T23:01:32Z,1602370892,2020,23,1,284.9594,284.9594,79.31102,-141.15709,1024.2,-1.82,-13.44,yes,yes,yes,300434063443910,SIMB3,CRREL/Dartmouth,BGOS/JOIS,North
2020-10-11T03:02:18Z,1602385338,2020,3,2,285.1266,285.1266,79.30642,-141.18952,1024.1,-1.74,-18.88,yes,yes,yes,300434063443910,SIMB3,CRREL/Dartmouth,BGOS/JOIS,North
2020-10-11T07:02:03Z,1602399724,2020,7,2,285.2931,285.2931,79.30487,-141.1913,1024.2,-1.79,-18.69,yes,yes,yes,300434063443910,SIMB3,CRREL/Dartmouth,BGOS/JOIS,North
2020-10-11T11:01:06Z,1602414066,2020,11,1,285.4591,285.4591,79.30034,-141.19101,1024.0,-1.75,-19.06,yes,yes,yes,300434063443910,SIMB3,CRREL/Dartmouth,BGOS/JOIS,North
2020-10-11T15:00:43Z,1602428443,2020,15,0,285.6255,285.6255,79.30146,-141.21102,1024.1,-1.78,-20.12,yes,yes,yes,300434063443910,SIMB3,CRREL/Dartmouth,BGOS/JOIS,North
2020-10-11T19:01:46Z,1602442907,2020,19,1,285.7929,285.7929,79.30526,-141.1971,1023.8,-1.78,-20.62,yes,yes,yes,300434063443910,SIMB3,CRREL/Dartmouth,BGOS/JOIS,North
2020-10-11T23:00:57Z,1602457258,2020,23,0,285.959,285.959,79.30401,-141.19032,1023.4,-1.81,-17.62,yes,yes,yes,300434063443910,SIMB3,CRREL/Dartmouth,BGOS/JOIS,North
2020-10-12T03:01:00Z,1602471660,2020,3,0,286.1257,286.1257,79.30966,-141.18664,1023.2,-1.78,-20.75,yes,yes,yes,300434063443910,SIMB3,CRREL/Dartmouth,BGOS/JOIS,North
2020-10-12T07:00:54Z,1602486055,2020,7,0,286.2923,286.2923,79.31986,-141.15202,1022.6,-1.76,-18.31,yes,yes,yes,300434063443910,SIMB3,CRREL/Dartmouth,BGOS/JOIS,North
2020-10-12T11:00:57Z,1602500458,2020,11,1,286.459,286.459,79.32626,-141.12965,1021.8,-1.78,-13.0,yes,yes,yes,300434063443910,SIMB3,CRREL/Dartmouth,BGOS/JOIS,North
2020-10-12T19:00:54Z,1602529255,2020,19,0,286.7923,286.7923,79.34155,-141.12994,1021.3,-1.77,-13.0,yes,yes,yes,300434063443910,SIMB3,CRREL/Dartmouth,BGOS/JOIS,North
2020-10-12T23:01:06Z,1602543666,2020,23,1,286.9591,286.9591,79.34327,-141.11821,1020.4,-1.78,-11.62,yes,yes,yes,300434063443910,SIMB3,CRREL/Dartmouth,BGOS/JOIS,North
2020-10-13T03:00:51Z,1602558052,2020,3,0,287.1256,287.1256,79.34493,-141.11283,1019.6,-1.74,-10.69,yes,yes,yes,300434063443910,SIMB3,CRREL/Dartmouth,BGOS/JOIS,North
2020-10-13T07:00:54Z,1602572455,2020,7,0,287.2923,287.2923,79.34467,-141.10098,1019.4,-1.76,-11.81,yes,yes,yes,300434063443910,SIMB3,CRREL/Dartmouth,BGOS/JOIS,North
2020-10-13T11:02:06Z,1602586927,2020,11,2,287.4598,287.4598,79.34071,-141.09246,1019.2,-1.81,-15.38,yes,yes,yes,300434063443910,SIMB3,CRREL/Dartmouth,BGOS/JOIS,North
2020-10-13T15:02:26Z,1602601347,2020,15,2,287.6267,287.6267,79.33756,-141.10002,1018.9,-1.75,-12.69,yes,yes,yes,300434063443910,SIMB3,CRREL/Dartmouth,BGOS/JOIS,North
2020-10-13T19:05:57Z,1602615957,2020,19,5,287.7958,287.7958,79.33575,-141.09862,1018.9,-1.75,-14.44,yes,yes,yes,300434063443910,SIMB3,CRREL/Dartmouth,BGOS/JOIS,North
2020-10-13T23:02:15Z,1602630135,2020,23,2,287.9599,287.9599,79.33115,-141.09506,1019.6,-1.79,-15.81,yes,yes,yes,300434063443910,SIMB3,CRREL/Dartmouth,BGOS/JOIS,North
2020-10-14T03:01:00Z,1602644460,2020,3,1,288.1257,288.1257,79.32636,-141.11288,1020.9,-1.75,-18.62,yes,yes,yes,300434063443910,SIMB3,CRREL/Dartmouth,BGOS/JOIS,North
2020-10-14T07:01:12Z,1602658872,2020,7,1,288.2925,288.2925,79.32866,-141.11088,1023.5,-1.76,-22.75,yes,yes,yes,300434063443910,SIMB3,CRREL/Dartmouth,BGOS/JOIS,North
2020-10-14T11:00:48Z,1602673249,2020,11,0,288.4589,288.4589,79.32694,-141.10472,1026.2,-1.78,-25.88,yes,yes,yes,300434063443910,SIMB3,CRREL/Dartmouth,BGOS/JOIS,North
2020-10-14T19:01:12Z,1602702072,2020,19,1,288.7925,288.7925,79.32798,-141.10395,1032.6,-1.76,-12.88,yes,yes,yes,300434063443910,SIMB3,CRREL/Dartmouth,BGOS/JOIS,North
2020-10-14T23:00:57Z,1602716458,2020,23,0,288.959,288.959,79.32728,-141.08771,1035.6,-1.79,-11.5,yes,yes,yes,300434063443910,SIMB3,CRREL/Dartmouth,BGOS/JOIS,North
2020-10-15T03:00:51Z,1602730852,2020,3,0,289.1256,289.1256,79.3251,-141.09469,1038.1,-1.74,-10.62,yes,yes,yes,300434063443910,SIMB3,CRREL/Dartmouth,BGOS/JOIS,North
2020-10-15T07:01:03Z,1602745263,2020,7,1,289.2924,289.2924,79.32553,-141.10274,1040.4,-1.79,-13.5,yes,yes,yes,300434063443910,SIMB3,CRREL/Dartmouth,BGOS/JOIS,North
2020-10-15T11:01:06Z,1602759666,2020,11,1,289.4591,289.4591,79.32238,-141.11248,1041.9,-1.79,-12.12,yes,yes,yes,300434063443910,SIMB3,CRREL/Dartmouth,BGOS/JOIS,North
2020-10-15T15:03:10Z,1602774190,2020,15,3,289.6272,289.6272,79.32,-141.14374,1042.7,-1.8,-8.56,yes,yes,yes,300434063443910,SIMB3,CRREL/Dartmouth,BGOS/JOIS,North
2020-10-15T19:01:20Z,1602788481,2020,19,1,289.7926,289.7926,79.3195,-141.16925,1043.1,-1.78,-7.81,yes,yes,yes,300434063443910,SIMB3,CRREL/Dartmouth,BGOS/JOIS,North
2020-10-15T23:00:57Z,1602802858,2020,23,0,289.959,289.959,79.31269,-141.19901,1042.3,-1.78,-7.62,yes,yes,yes,300434063443910,SIMB3,CRREL/Dartmouth,BGOS/JOIS,North
2020-10-16T03:01:00Z,1602817260,2020,3,0,290.1257,290.1257,79.30023,-141.26166,1041.2,-1.76,-8.19,yes,yes,yes,300434063443910,SIMB3,CRREL/Dartmouth,BGOS/JOIS,North
2020-10-16T07:00:54Z,1602831655,2020,7,0,290.2923,290.2923,79.28934,-141.35317,1040.6,-1.75,-7.88,yes,yes,yes,300434063443910,SIMB3,CRREL/Dartmouth,BGOS/JOIS,North